DYE318 LIMJ-LIEE

Flight info

Callsign DYE318
Flight time 1h 19m
Altitude 19000
Route UNITA L50 TIDKA/N0434F390 DCT BAKRO DCT ELB DCT TINTO DCT APSUX DCT PIDUL DCT GITRI DCT VEKET DCT RAMEN DCT KOVAS
Aircraft A20N/M-SDE2E3FGHIRWXY/LB1

Departure

Time 2026-04-29 03:42
Airport Genoa Cristoforo Colombo Airport (LIMJ)

Arrival

Time 2026-04-29 05:01
Airport Cagliari Elmas Airport (LIEE)
Time Latitude Longitude Altitude Speed Heading
2026-04-29 03:29 44.41352 8.84616 20 ft 0 kts 195°
2026-04-29 03:38 44.41346 8.84598 20 ft 11 kts 242°
2026-04-29 03:38 44.41339 8.84450 22 ft 18 kts 249°
2026-04-29 03:38 44.41333 8.84282 19 ft 19 kts 283°
2026-04-29 03:38 44.41368 8.84094 19 ft 21 kts 285°
2026-04-29 03:39 44.41410 8.83889 19 ft 23 kts 291°
2026-04-29 03:39 44.41452 8.83673 19 ft 23 kts 285°
2026-04-29 03:39 44.41497 8.83448 19 ft 25 kts 285°
2026-04-29 03:39 44.41541 8.83207 19 ft 26 kts 285°
2026-04-29 03:40 44.41577 8.83030 20 ft 17 kts 286°
2026-04-29 03:40 44.41611 8.82857 18 ft 20 kts 285°
2026-04-29 03:40 44.41652 8.82663 18 ft 22 kts 284°
2026-04-29 03:40 44.41623 8.82503 17 ft 15 kts 204°
2026-04-29 03:41 44.41530 8.82524 15 ft 14 kts 117°
2026-04-29 03:41 44.41489 8.82698 17 ft 42 kts 105°
2026-04-29 03:41 44.41329 8.83515 20 ft 128 kts 105°
2026-04-29 03:41 44.41039 8.85014 126 ft 182 kts 105°
2026-04-29 03:42 44.40558 8.86631 992 ft 176 kts 132°
2026-04-29 03:42 44.39595 8.87574 1946 ft 171 kts 156°
2026-04-29 03:42 44.38440 8.88172 2529 ft 188 kts 163°
2026-04-29 03:42 44.37174 8.88734 3214 ft 198 kts 162°
2026-04-29 03:43 44.35869 8.89374 4061 ft 200 kts 160°
2026-04-29 03:43 44.34566 8.90083 4890 ft 202 kts 159°
2026-04-29 03:43 44.33261 8.90840 5702 ft 205 kts 158°
2026-04-29 03:43 44.31976 8.91605 6467 ft 207 kts 158°
2026-04-29 03:44 44.30645 8.92406 7268 ft 210 kts 157°
2026-04-29 03:44 44.29299 8.93216 8041 ft 213 kts 157°
2026-04-29 03:44 44.27886 8.93837 8794 ft 215 kts 178°
2026-04-29 03:44 44.26451 8.93376 9522 ft 216 kts 211°
2026-04-29 03:45 44.25219 8.92167 10251 ft 219 kts 217°
2026-04-29 03:45 44.23975 8.90893 10925 ft 225 kts 217°
2026-04-29 03:45 44.22705 8.89597 11581 ft 233 kts 216°
2026-04-29 03:45 44.21386 8.88264 12344 ft 235 kts 216°
2026-04-29 03:46 44.20045 8.86917 13110 ft 238 kts 216°
2026-04-29 03:46 44.18694 8.85565 13838 ft 241 kts 216°
2026-04-29 03:46 44.17322 8.84195 14555 ft 244 kts 216°
2026-04-29 03:46 44.15935 8.82813 15249 ft 247 kts 214°
2026-04-29 03:47 44.14373 8.81843 15889 ft 250 kts 189°
2026-04-29 03:47 44.12631 8.81923 16502 ft 253 kts 163°
2026-04-29 03:47 44.11096 8.83051 17095 ft 257 kts 140°
2026-04-29 03:47 44.09705 8.84710 17453 ft 274 kts 140°
2026-04-29 03:48 44.08199 8.86502 17638 ft 296 kts 140°
2026-04-29 03:48 44.06573 8.88418 17830 ft 317 kts 140°
2026-04-29 03:48 44.04825 8.90463 18005 ft 338 kts 140°
2026-04-29 03:48 44.02966 8.92629 18210 ft 358 kts 140°
2026-04-29 03:49 44.01007 8.94906 18397 ft 377 kts 140°
2026-04-29 03:49 43.98967 8.97276 18885 ft 385 kts 140°
2026-04-29 03:49 43.96904 8.99668 19553 ft 388 kts 140°
2026-04-29 03:49 43.94824 9.02078 20181 ft 391 kts 140°
2026-04-29 03:50 43.92725 9.04508 20790 ft 395 kts 140°
2026-04-29 03:50 43.90604 9.06963 21391 ft 399 kts 140°
2026-04-29 03:50 43.88463 9.09439 21973 ft 402 kts 140°
2026-04-29 03:50 43.86305 9.11932 22538 ft 406 kts 140°
2026-04-29 03:51 43.84124 9.14449 23092 ft 410 kts 140°
2026-04-29 03:51 43.81925 9.16985 23632 ft 413 kts 140°
2026-04-29 03:51 43.79712 9.19534 24158 ft 416 kts 140°
2026-04-29 03:51 43.77465 9.22119 24673 ft 420 kts 140°
2026-04-29 03:52 43.75208 9.24714 25168 ft 423 kts 140°
2026-04-29 03:52 43.72936 9.27324 25647 ft 426 kts 140°
2026-04-29 03:52 43.70677 9.29917 26102 ft 429 kts 140°
2026-04-29 03:52 43.68373 9.32559 26549 ft 432 kts 140°
2026-04-29 03:53 43.66050 9.35220 26982 ft 435 kts 141°
2026-04-29 03:53 43.63711 9.37895 27402 ft 438 kts 141°
2026-04-29 03:53 43.61353 9.40590 27802 ft 441 kts 141°
2026-04-29 03:53 43.58981 9.43299 28188 ft 444 kts 141°
2026-04-29 03:54 43.56599 9.46016 28560 ft 446 kts 141°
2026-04-29 03:54 43.54202 9.48747 28917 ft 449 kts 141°
2026-04-29 03:54 43.51782 9.51502 29262 ft 451 kts 141°
2026-04-29 03:54 43.49358 9.54257 29593 ft 454 kts 141°
2026-04-29 03:55 43.46918 9.57029 29924 ft 456 kts 141°
2026-04-29 03:55 43.44465 9.59812 30249 ft 458 kts 141°
2026-04-29 03:55 43.41991 9.62616 30579 ft 461 kts 141°
2026-04-29 03:55 43.39545 9.65385 30900 ft 463 kts 141°
2026-04-29 03:56 43.37056 9.68199 31246 ft 464 kts 141°
2026-04-29 03:56 43.34561 9.71018 31654 ft 464 kts 141°
2026-04-29 03:56 43.32069 9.73830 32078 ft 463 kts 141°
2026-04-29 03:56 43.29579 9.76637 32485 ft 462 kts 141°
2026-04-29 03:57 43.27097 9.79432 32877 ft 461 kts 141°
2026-04-29 03:57 43.24612 9.82227 33255 ft 460 kts 141°
2026-04-29 03:57 43.22139 9.85005 33620 ft 460 kts 141°
2026-04-29 03:57 43.19665 9.87782 33973 ft 459 kts 141°
2026-04-29 03:58 43.17194 9.90553 34317 ft 458 kts 141°
2026-04-29 03:58 43.14727 9.93318 34642 ft 458 kts 141°
2026-04-29 03:58 43.12523 9.95785 34926 ft 457 kts 141°
2026-04-29 03:58 43.10063 9.98538 35233 ft 456 kts 141°
2026-04-29 03:59 43.07605 10.01285 35528 ft 456 kts 141°
2026-04-29 03:59 43.05149 10.04026 35813 ft 455 kts 141°
2026-04-29 03:59 43.02700 10.06756 36085 ft 454 kts 141°
2026-04-29 03:59 43.00280 10.09451 36335 ft 454 kts 141°
2026-04-29 04:00 42.98230 10.11733 36528 ft 454 kts 141°
2026-04-29 04:00 42.95774 10.14463 36752 ft 454 kts 141°
2026-04-29 04:00 42.93323 10.17185 36971 ft 454 kts 141°
2026-04-29 04:00 42.91164 10.19580 37156 ft 454 kts 141°
2026-04-29 04:01 42.88712 10.22297 37362 ft 454 kts 141°
2026-04-29 04:01 42.86255 10.25017 37559 ft 454 kts 141°
2026-04-29 04:01 42.83803 10.27729 37750 ft 454 kts 141°
2026-04-29 04:01 42.81352 10.30437 37934 ft 454 kts 141°
2026-04-29 04:02 42.78898 10.33146 38112 ft 454 kts 141°
2026-04-29 04:02 42.76438 10.35853 38279 ft 454 kts 142°
2026-04-29 04:02 42.73868 10.38357 38443 ft 454 kts 148°
2026-04-29 04:02 42.71131 10.40494 38602 ft 454 kts 154°
2026-04-29 04:03 42.68261 10.42243 38747 ft 453 kts 159°
2026-04-29 04:03 42.65359 10.43804 38891 ft 453 kts 159°
2026-04-29 04:03 42.62431 10.45389 38994 ft 454 kts 158°
2026-04-29 04:03 42.59500 10.46984 39003 ft 453 kts 158°
2026-04-29 04:04 42.53657 10.50169 39004 ft 452 kts 158°
2026-04-29 04:04 42.48152 10.53164 38999 ft 452 kts 158°
2026-04-29 04:05 42.42306 10.56338 39000 ft 452 kts 158°
2026-04-29 04:05 42.36466 10.59502 39007 ft 452 kts 158°
2026-04-29 04:06 42.30616 10.62665 38998 ft 452 kts 158°
2026-04-29 04:06 42.24772 10.65818 38997 ft 452 kts 159°
2026-04-29 04:07 42.18925 10.68967 38995 ft 452 kts 159°
2026-04-29 04:07 42.13120 10.72087 39002 ft 452 kts 159°
2026-04-29 04:08 42.07277 10.75221 39006 ft 452 kts 159°
2026-04-29 04:08 42.01431 10.78350 38994 ft 452 kts 159°
2026-04-29 04:09 41.95578 10.81477 39000 ft 452 kts 159°
2026-04-29 04:09 41.89725 10.84598 39002 ft 452 kts 159°
2026-04-29 04:10 41.83863 10.87718 38996 ft 452 kts 159°
2026-04-29 04:10 41.78011 10.90826 38998 ft 452 kts 159°
2026-04-29 04:11 41.72158 10.93928 39002 ft 452 kts 159°
2026-04-29 04:11 41.66299 10.97028 39002 ft 453 kts 159°
2026-04-29 04:12 41.60461 11.00055 39002 ft 452 kts 163°
2026-04-29 04:12 41.54274 11.01324 39000 ft 451 kts 181°
2026-04-29 04:13 41.48109 11.00037 38990 ft 450 kts 199°
2026-04-29 04:13 41.42539 10.96325 38987 ft 449 kts 216°
2026-04-29 04:14 41.38087 10.90538 38983 ft 449 kts 232°
2026-04-29 04:14 41.34202 10.84025 38988 ft 449 kts 231°
2026-04-29 04:15 41.30288 10.77524 38996 ft 450 kts 231°
2026-04-29 04:15 41.26369 10.71024 38991 ft 451 kts 231°
2026-04-29 04:16 41.23104 10.65617 39005 ft 451 kts 231°
2026-04-29 04:16 41.18532 10.58061 39007 ft 452 kts 231°
2026-04-29 04:17 41.14590 10.51564 39009 ft 452 kts 231°
2026-04-29 04:17 41.11275 10.46115 39019 ft 453 kts 231°
2026-04-29 04:18 41.07347 10.39671 38997 ft 451 kts 231°
2026-04-29 04:18 41.03406 10.33215 39001 ft 450 kts 231°
2026-04-29 04:19 40.99456 10.26750 38995 ft 451 kts 231°
2026-04-29 04:19 40.95512 10.20308 39007 ft 451 kts 231°
2026-04-29 04:20 40.91451 10.13989 39002 ft 451 kts 226°
2026-04-29 04:20 40.87091 10.08044 38996 ft 451 kts 226°
2026-04-29 04:21 40.82729 10.02083 38998 ft 451 kts 226°
2026-04-29 04:21 40.78363 9.96122 39011 ft 451 kts 226°
2026-04-29 04:22 40.73994 9.90170 38999 ft 451 kts 226°
2026-04-29 04:22 40.69619 9.84221 39004 ft 452 kts 226°
2026-04-29 04:23 40.65273 9.78324 39012 ft 452 kts 226°
2026-04-29 04:23 40.60892 9.72391 39006 ft 452 kts 226°
2026-04-29 04:24 40.56516 9.66477 38999 ft 452 kts 226°
2026-04-29 04:24 40.52129 9.60561 39002 ft 452 kts 226°
2026-04-29 04:25 40.47743 9.54656 39009 ft 451 kts 225°
2026-04-29 04:25 40.43349 9.48752 39007 ft 451 kts 225°
2026-04-29 04:26 40.38955 9.42862 39006 ft 451 kts 225°
2026-04-29 04:26 40.34553 9.36999 38997 ft 451 kts 223°
2026-04-29 04:27 40.29598 9.32054 38995 ft 450 kts 210°
2026-04-29 04:27 40.24206 9.27881 38999 ft 450 kts 211°
2026-04-29 04:28 40.18821 9.23683 38994 ft 450 kts 211°
2026-04-29 04:28 40.13441 9.19492 38997 ft 450 kts 211°
2026-04-29 04:29 40.08058 9.15307 38996 ft 450 kts 211°
2026-04-29 04:29 40.02668 9.11126 38991 ft 450 kts 211°
2026-04-29 04:30 39.97329 9.06992 38999 ft 450 kts 211°
2026-04-29 04:31 39.89257 9.00755 38456 ft 449 kts 211°
2026-04-29 04:31 39.86536 8.98718 37700 ft 452 kts 206°
2026-04-29 04:31 39.83583 8.97274 36775 ft 457 kts 194°
2026-04-29 04:31 39.80422 8.96660 35810 ft 463 kts 182°
2026-04-29 04:32 39.77202 8.96925 34904 ft 466 kts 169°
2026-04-29 04:32 39.74094 8.98081 34237 ft 463 kts 157°
2026-04-29 04:32 39.71308 9.00062 34008 ft 451 kts 145°
2026-04-29 04:32 39.68860 9.02503 33871 ft 437 kts 141°
2026-04-29 04:33 39.66530 9.04899 33740 ft 423 kts 143°
2026-04-29 04:33 39.64199 9.07136 33575 ft 411 kts 145°
2026-04-29 04:33 39.61748 9.08924 33406 ft 398 kts 160°
2026-04-29 04:33 39.59114 9.09725 33287 ft 383 kts 177°
2026-04-29 04:34 39.56504 9.09483 33025 ft 373 kts 195°
2026-04-29 04:34 39.54155 9.08208 32745 ft 365 kts 214°
2026-04-29 04:34 39.52286 9.06002 32501 ft 369 kts 234°
2026-04-29 04:34 39.51053 9.03029 32319 ft 383 kts 252°
2026-04-29 04:35 39.50590 8.99595 32299 ft 393 kts 270°
2026-04-29 04:35 39.50930 8.96050 32280 ft 404 kts 286°
2026-04-29 04:35 39.52045 8.92659 32259 ft 415 kts 301°
2026-04-29 04:35 39.53852 8.89687 32239 ft 427 kts 316°
2026-04-29 04:36 39.56212 8.87324 32217 ft 431 kts 329°
2026-04-29 04:36 39.58815 8.85449 32057 ft 423 kts 332°
2026-04-29 04:36 39.61391 8.83672 31606 ft 418 kts 331°
2026-04-29 04:36 39.63888 8.81841 30896 ft 420 kts 329°
2026-04-29 04:37 39.66380 8.79887 29917 ft 428 kts 328°
2026-04-29 04:37 39.68940 8.77796 28699 ft 441 kts 328°
2026-04-29 04:37 39.71706 8.76028 27447 ft 453 kts 340°
2026-04-29 04:37 39.74796 8.75042 26195 ft 462 kts 352°
2026-04-29 04:38 39.78030 8.74922 24943 ft 470 kts
2026-04-29 04:38 39.81263 8.75689 23689 ft 475 kts 17°
2026-04-29 04:38 39.84335 8.77319 22437 ft 479 kts 28°
2026-04-29 04:38 39.87065 8.79705 21166 ft 472 kts 40°
2026-04-29 04:39 39.89330 8.82731 19938 ft 464 kts 52°
2026-04-29 04:39 39.91028 8.86246 18689 ft 455 kts 64°
2026-04-29 04:39 39.92093 8.90090 17447 ft 447 kts 77°
2026-04-29 04:39 39.92482 8.94061 16202 ft 440 kts 90°
2026-04-29 04:40 39.92174 8.97988 14953 ft 432 kts 103°
2026-04-29 04:40 39.91168 9.01625 13886 ft 422 kts 118°
2026-04-29 04:40 39.89519 9.04626 13473 ft 396 kts 135°
2026-04-29 04:40 39.87518 9.06656 13209 ft 371 kts 152°
2026-04-29 04:41 39.85169 9.07721 12968 ft 347 kts 173°
2026-04-29 04:41 39.82870 9.07704 12767 ft 326 kts 188°
2026-04-29 04:41 39.80679 9.07221 12585 ft 306 kts 192°
2026-04-29 04:41 39.78674 9.06678 12423 ft 288 kts 192°
2026-04-29 04:42 39.76775 9.06144 12274 ft 270 kts 193°
2026-04-29 04:42 39.74994 9.05640 12119 ft 254 kts 193°
2026-04-29 04:42 39.73294 9.05157 11775 ft 247 kts 193°
2026-04-29 04:42 39.71616 9.04683 11459 ft 248 kts 192°
2026-04-29 04:43 39.69901 9.04428 11219 ft 249 kts 179°
2026-04-29 04:43 39.68192 9.04743 10968 ft 247 kts 165°
2026-04-29 04:43 39.66611 9.05519 10726 ft 246 kts 155°
2026-04-29 04:43 39.65102 9.06573 10475 ft 246 kts 150°
2026-04-29 04:44 39.63644 9.07749 10230 ft 253 kts 148°
2026-04-29 04:44 39.62101 9.09038 10129 ft 268 kts 147°
2026-04-29 04:44 39.60533 9.10353 10184 ft 269 kts 148°
2026-04-29 04:44 39.58956 9.11668 10230 ft 269 kts 148°
2026-04-29 04:45 39.57374 9.12979 10276 ft 269 kts 148°
2026-04-29 04:45 39.55814 9.14267 10319 ft 270 kts 148°
2026-04-29 04:45 39.54232 9.15571 10358 ft 270 kts 148°
2026-04-29 04:45 39.52645 9.16878 10396 ft 270 kts 148°
2026-04-29 04:46 39.51060 9.18182 10441 ft 270 kts 148°
2026-04-29 04:46 39.49474 9.19486 10474 ft 270 kts 148°
2026-04-29 04:46 39.47885 9.20792 10515 ft 270 kts 148°
2026-04-29 04:46 39.46293 9.22100 10552 ft 271 kts 148°
2026-04-29 04:47 39.44702 9.23406 10592 ft 271 kts 148°
2026-04-29 04:47 39.43111 9.24711 10628 ft 271 kts 148°
2026-04-29 04:47 39.41518 9.26018 10657 ft 271 kts 148°
2026-04-29 04:47 39.39929 9.27321 10702 ft 271 kts 148°
2026-04-29 04:48 39.38334 9.28627 10740 ft 271 kts 148°
2026-04-29 04:48 39.36728 9.29942 10528 ft 274 kts 148°
2026-04-29 04:48 39.35129 9.31250 10242 ft 268 kts 148°
2026-04-29 04:48 39.33560 9.32534 10016 ft 268 kts 148°
2026-04-29 04:49 39.31986 9.33822 9861 ft 267 kts 148°
2026-04-29 04:49 39.30435 9.35089 9746 ft 267 kts 148°
2026-04-29 04:49 39.28863 9.36371 9641 ft 267 kts 148°
2026-04-29 04:49 39.27289 9.37655 9416 ft 268 kts 148°
2026-04-29 04:50 39.25724 9.38933 9068 ft 265 kts 148°
2026-04-29 04:50 39.24178 9.40194 8728 ft 262 kts 148°
2026-04-29 04:50 39.22631 9.41454 8388 ft 262 kts 148°
2026-04-29 04:50 39.21095 9.42705 8042 ft 260 kts 148°
2026-04-29 04:51 39.19568 9.43945 7707 ft 259 kts 149°
2026-04-29 04:51 39.17898 9.44735 7376 ft 256 kts 174°
2026-04-29 04:51 39.16135 9.44548 7042 ft 255 kts 196°
2026-04-29 04:51 39.14454 9.43856 6711 ft 253 kts 200°
2026-04-29 04:52 39.12808 9.43051 6378 ft 252 kts 202°
2026-04-29 04:52 39.11207 9.42136 6044 ft 251 kts 206°
2026-04-29 04:52 39.09656 9.41116 5712 ft 250 kts 209°
2026-04-29 04:52 39.08162 9.39997 5384 ft 248 kts 212°
2026-04-29 04:53 39.06729 9.38763 5049 ft 247 kts 220°
2026-04-29 04:53 39.05677 9.37050 4725 ft 246 kts 245°
2026-04-29 04:53 39.05219 9.34976 4488 ft 240 kts 257°
2026-04-29 04:53 39.04857 9.32911 4361 ft 227 kts 257°
2026-04-29 04:54 39.04636 9.30958 4265 ft 216 kts 274°
2026-04-29 04:54 39.05069 9.29181 4170 ft 204 kts 300°
2026-04-29 04:54 39.05914 9.27772 4079 ft 194 kts 313°
2026-04-29 04:54 39.06861 9.26600 3981 ft 184 kts 317°
2026-04-29 04:55 39.07775 9.25553 3894 ft 173 kts 317°
2026-04-29 04:55 39.08401 9.24829 3809 ft 166 kts 317°
2026-04-29 04:55 39.09205 9.23899 3806 ft 146 kts 317°
2026-04-29 04:55 39.09958 9.23027 3702 ft 149 kts 317°
2026-04-29 04:56 39.10721 9.22144 3512 ft 145 kts 317°
2026-04-29 04:56 39.11477 9.21270 3324 ft 146 kts 317°
2026-04-29 04:56 39.12228 9.20400 3134 ft 143 kts 317°
2026-04-29 04:56 39.12953 9.19561 2948 ft 137 kts 317°
2026-04-29 04:57 39.13664 9.18738 2771 ft 139 kts 317°
2026-04-29 04:57 39.14377 9.17913 2583 ft 137 kts 317°
2026-04-29 04:57 39.15086 9.17091 2410 ft 137 kts 317°
2026-04-29 04:57 39.15792 9.16273 2222 ft 137 kts 317°
2026-04-29 04:58 39.16499 9.15455 2050 ft 136 kts 317°
2026-04-29 04:58 39.17202 9.14640 1863 ft 136 kts 317°
2026-04-29 04:58 39.17906 9.13824 1684 ft 135 kts 317°
2026-04-29 04:58 39.18599 9.13020 1507 ft 135 kts 317°
2026-04-29 04:59 39.19297 9.12211 1327 ft 135 kts 317°
2026-04-29 04:59 39.19993 9.11405 1148 ft 134 kts 317°
2026-04-29 04:59 39.20453 9.10870 1030 ft 134 kts 317°
2026-04-29 04:59 39.21248 9.09948 824 ft 134 kts 317°
2026-04-29 05:00 39.21939 9.09147 648 ft 133 kts 317°
2026-04-29 05:00 39.22626 9.08349 471 ft 133 kts 317°
2026-04-29 05:00 39.23312 9.07552 296 ft 133 kts 317°
2026-04-29 05:00 39.23997 9.06758 117 ft 132 kts 317°
2026-04-29 05:01 39.24657 9.05989 15 ft 116 kts 317°
2026-04-29 05:01 39.24910 9.05698 17 ft 10 kts 318°
2026-04-29 05:01 39.25014 9.05601 18 ft 17 kts 353°
2026-04-29 05:01 39.25096 9.05700 17 ft 19 kts 56°
2026-04-29 05:02 39.25162 9.05858 16 ft 16 kts 62°
2026-04-29 05:02 39.25246 9.05893 16 ft 11 kts
2026-04-29 05:02 39.25251 9.05893 16 ft 0 kts